This is the latest recevied weather packets stored in our database for station/object W1LBM. If no packets are shown the sender has not sent any weather packets the latest 10 day(s).
| Time | Temp. | Humidity | Pressure | Rain* | Wind** | Luminosity | Snow |
|---|---|---|---|---|---|---|---|
| 1777117947 | 6.67° C | 69% | 1021.7 hPa | 0 mm | - | 41 W/m² | - |
| 1777117644 | 5.56° C | 73% | 1021.7 hPa | 0 mm | - | 59 W/m² | - |
| 1777117341 | 5° C | 81% | 1021.9 hPa | 0 mm | - | 104 W/m² | - |
| 1777117037 | 4.44° C | 89% | 1021.9 hPa | 0 mm | - | 94 W/m² | - |
| 1777116733 | 3.89° C | 96% | 1021.7 hPa | 0 mm | - | 41 W/m² | - |
| 1777116429 | 3.33° C | 98% | 1021.7 hPa | 0 mm | - | 65 W/m² | - |
| 1777116125 | 3.89° C | 99% | 1021.7 hPa | 0 mm | - | 41 W/m² | - |
| 1777115824 | 2.78° C | 99% | 1021.5 hPa | 0 mm | - | 40 W/m² | - |
| 1777115520 | 2.78° C | 99% | 1021.5 hPa | 0 mm | - | 38 W/m² | - |
| 1777115216 | 2.78° C | 99% | 1021.3 hPa | 0 mm | - | 41 W/m² | - |
| 1777114914 | 1.67° C | 99% | 1021.4 hPa | 0 mm | - | 51 W/m² | - |
| 1777114610 | 1.67° C | 99% | 1021.4 hPa | 0 mm | - | 26 W/m² | - |
| 1777114309 | 1.67° C | 99% | 1021.3 hPa | 0 mm | - | 24 W/m² | - |
| 1777114007 | 1.67° C | 99% | 1021.1 hPa | 0 mm | - | 22 W/m² | - |
| 1777113703 | 2.78° C | 99% | 1021 hPa | 0 mm | - | 21 W/m² | - |
| 1777113401 | 1.67° C | 99% | 1020.9 hPa | 0 mm | - | 28 W/m² | - |
| 1777113100 | 0° C | 99% | 1021.1 hPa | 0 mm | - | 24 W/m² | - |
| 1777112797 | -0.56° C | 99% | 1020.9 hPa | 0 mm | - | 15 W/m² | - |
| 1777112494 | -0.56° C | 99% | 1021.1 hPa | 0 mm | - | 13 W/m² | - |
| 1777112191 | -0.56° C | 99% | 1020.8 hPa | 0 mm | - | 11 W/m² | - |
| 1777111887 | -0.56° C | 99% | 1020.8 hPa | 0 mm | - | 9 W/m² | - |
| 1777111585 | -0.56° C | 99% | 1020.7 hPa | 0 mm | - | 8 W/m² | - |
| 1777111280 | -0.56° C | 99% | 1020.6 hPa | 0 mm | - | 6 W/m² | - |
| 1777110976 | -0.56° C | 99% | 1020.6 hPa | 0 mm | - | 4 W/m² | - |
| 1777110673 | -0.56° C | 99% | 1020.4 hPa | 0 mm | - | 2 W/m² | - |
* Rain latest hour (hover to see other rain measurements)
** Current wind speed in m/s (hover to see current wind gust speed)